• In France
  • List of Countries
  • For 7 days
  • Water Temperature
  • Satellite Maps
  • Weather Map
  • Weather Widgets
  • user-avatar
    Login

    Hourly Weather Molevo

    Today, 21 September, Friday

    Time Temperature Precipitation Wind Pressure Humidity
    00:00 +15°C° 0 mm 1 mps 745 mmHg 84%
    01:00 +15°C° 0 mm 1 mps 745 mmHg 85%
    02:00 +15°C° 0 mm 1 mps 745 mmHg 87%
    03:00 +15°C° 0 mm 1 mps 745 mmHg 88%
    04:00 +14°C° 0 mm 1 mps 745 mmHg 90%
    05:00 +14°C° 0 mm 1 mps 745 mmHg 91%
    06:00 +16°C° 0 mm 1 mps 745 mmHg 88%
    07:00 +17°C° 0 mm 2 mps 746 mmHg 86%
    08:00 +18°C° 0 mm 2 mps 746 mmHg 82%
    09:00 +20°C° 0 mm 2 mps 746 mmHg 77%
    10:00 +21°C° 0 mm 2 mps 746 mmHg 73%
    11:00 +24°C° 0 mm 3 mps 746 mmHg 68%
    12:00 +25°C° 0 mm 3 mps 745 mmHg 66%
    13:00 +25°C° 0 mm 3 mps 745 mmHg 64%
    14:00 +26°C° 0 mm 3 mps 745 mmHg 61%
    15:00 +25°C° 0 mm 3 mps 745 mmHg 66%
    16:00 +24°C° 0 mm 2 mps 745 mmHg 70%
    17:00 +23°C° 0 mm 2 mps 744 mmHg 75%
    18:00 +21°C° 0 mm 2 mps 744 mmHg 77%
    19:00 +19°C° 0 mm 2 mps 744 mmHg 80%
    20:00 +18°C° 0 mm 3 mps 744 mmHg 83%
    21:00 +17°C° 0 mm 3 mps 744 mmHg 82%
    22:00 +17°C° 0 mm 3 mps 743 mmHg 81%
    23:00 +16°C° 0 mm 3 mps 743 mmHg 80%

    Tomorrow, 22 September, Saturday

    Time Temperature Precipitation Wind Pressure Humidity
    00:00 +16°C° 0 mm 3 mps 743 mmHg 79%
    01:00 +15°C° 0 mm 4 mps 743 mmHg 78%
    02:00 +15°C° 0 mm 4 mps 742 mmHg 77%
    03:00 +15°C° 0 mm 4 mps 742 mmHg 77%
    04:00 +15°C° 0 mm 4 mps 741 mmHg 77%
    05:00 +15°C° 0 mm 5 mps 741 mmHg 76%
    06:00 +15°C° 0 mm 5 mps 741 mmHg 74%
    07:00 +16°C° 0 mm 5 mps 740 mmHg 72%
    08:00 +17°C° 0 mm 6 mps 740 mmHg 70%
    09:00 +19°C° 0 mm 6 mps 740 mmHg 65%
    10:00 +21°C° 0 mm 6 mps 740 mmHg 59%
    11:00 +22°C° 0 mm 7 mps 740 mmHg 54%
    12:00 +22°C° 0 mm 6 mps 740 mmHg 57%
    13:00 +21°C° 0 mm 5 mps 740 mmHg 61%
    14:00 +20°C° 0 mm 4 mps 740 mmHg 64%
    15:00 +18°C° 0 mm 4 mps 740 mmHg 66%
    16:00 +16°C° 0 mm 5 mps 740 mmHg 68%
    17:00 +14°C° 0 mm 5 mps 740 mmHg 70%
    18:00 +13°C° 0.5 mm 5 mps 740 mmHg 74%
    19:00 +11°C° 0.5 mm 4 mps 740 mmHg 78%
    20:00 +10°C° 0.5 mm 4 mps 740 mmHg 82%
    21:00 +8°C° 1.1 mm 4 mps 741 mmHg 86%
    22:00 +9°C° 1.1 mm 3 mps 741 mmHg 90%
    23:00 +9°C° 1.1 mm 3 mps 741 mmHg 94%

    Day after tomorrow, 23 September, Sunday

    Time Temperature Precipitation Wind Pressure Humidity
    00:00 +9°C° 0.3 mm 3 mps 741 mmHg 93%
    01:00 +9°C° 0.3 mm 3 mps 740 mmHg 93%
    02:00 +9°C° 0.3 mm 3 mps 740 mmHg 93%
    03:00 +9°C° 0.1 mm 3 mps 740 mmHg 94%
    04:00 +9°C° 0.1 mm 3 mps 740 mmHg 94%
    05:00 +8°C° 0.1 mm 3 mps 740 mmHg 95%
    06:00 +9°C° 0 mm 3 mps 739 mmHg 93%
    07:00 +9°C° 0 mm 3 mps 739 mmHg 92%
    08:00 +8°C° 0 mm 4 mps 739 mmHg 90%
    09:00 +10°C° 0 mm 4 mps 739 mmHg 83%
    10:00 +12°C° 0 mm 4 mps 739 mmHg 76%
    11:00 +13°C° 0 mm 5 mps 739 mmHg 70%
    12:00 +13°C° 0.3 mm 5 mps 738 mmHg 68%
    13:00 +14°C° 0.3 mm 5 mps 738 mmHg 66%
    14:00 +14°C° 0.3 mm 5 mps 738 mmHg 65%
    15:00 +13°C° 0.2 mm 5 mps 738 mmHg 67%
    16:00 +12°C° 0.2 mm 4 mps 738 mmHg 70%
    17:00 +12°C° 0.2 mm 3 mps 738 mmHg 72%
    18:00 +10°C° 0 mm 3 mps 738 mmHg 75%
    19:00 +9°C° 0 mm 3 mps 738 mmHg 78%
    20:00 +8°C° 0 mm 3 mps 739 mmHg 81%
    21:00 +8°C° 0 mm 3 mps 738 mmHg 83%
    22:00 +7°C° 0 mm 4 mps 738 mmHg 84%
    23:00 +6°C° 0 mm 4 mps 738 mmHg 86%

    24 September, Monday

    Time Temperature Precipitation Wind Pressure Humidity
    00:00 +6°C° 0 mm 4 mps 738 mmHg 88%
    01:00 +7°C° 0 mm 3 mps 738 mmHg 89%
    02:00 +5°C° 0 mm 3 mps 738 mmHg 91%
    03:00 +5°C° 0 mm 3 mps 738 mmHg 92%
    04:00 +5°C° 0 mm 3 mps 737 mmHg 94%
    05:00 +5°C° 0 mm 2 mps 737 mmHg 95%
    06:00 +5°C° 0 mm 3 mps 737 mmHg 92%
    07:00 +7°C° 0 mm 3 mps 737 mmHg 88%
    08:00 +8°C° 0 mm 3 mps 737 mmHg 85%
    09:00 +9°C° 0.1 mm 3 mps 736 mmHg 81%
    10:00 +10°C° 0.1 mm 3 mps 736 mmHg 78%
    11:00 +11°C° 0.1 mm 3 mps 735 mmHg 74%
    12:00 +10°C° 0.9 mm 3 mps 734 mmHg 78%
    13:00 +10°C° 0.9 mm 3 mps 734 mmHg 82%
    14:00 +10°C° 0.9 mm 3 mps 733 mmHg 86%
    15:00 +8°C° 1.7 mm 4 mps 732 mmHg 88%
    16:00 +7°C° 1.7 mm 4 mps 731 mmHg 90%
    17:00 +7°C° 1.7 mm 5 mps 730 mmHg 92%
    18:00 +5°C° 1.5 mm 6 mps 730 mmHg 92%
    19:00 +5°C° 1.5 mm 6 mps 729 mmHg 92%
    20:00 +5°C° 1.5 mm 7 mps 729 mmHg 92%
    21:00 +5°C° 1 mm 7 mps 729 mmHg 91%
    22:00 +5°C° 1 mm 7 mps 729 mmHg 91%
    23:00 +5°C° 1 mm 7 mps 729 mmHg 91%

    25 September, Tuesday

    Time Temperature Precipitation Wind Pressure Humidity
    00:00 +5°C° 1 mm 8 mps 729 mmHg 91%
    01:00 +5°C° 1 mm 8 mps 730 mmHg 90%
    02:00 +5°C° 1 mm 8 mps 731 mmHg 90%
    03:00 +5°C° 0.3 mm 8 mps 731 mmHg 90%
    04:00 +5°C° 0.3 mm 8 mps 732 mmHg 89%
    05:00 +5°C° 0.3 mm 8 mps 733 mmHg 88%
    06:00 +4°C° 0.1 mm 8 mps 734 mmHg 87%
    07:00 +4°C° 0.1 mm 8 mps 734 mmHg 86%
    08:00 +4°C° 0.1 mm 8 mps 735 mmHg 85%
    09:00 +5°C° 0 mm 8 mps 736 mmHg 81%
    10:00 +5°C° 0 mm 8 mps 737 mmHg 78%
    11:00 +6°C° 0 mm 8 mps 737 mmHg 74%
    12:00 +6°C° 0.1 mm 8 mps 738 mmHg 71%
    13:00 +6°C° 0.1 mm 8 mps 738 mmHg 68%
    14:00 +7°C° 0.1 mm 8 mps 739 mmHg 65%
    15:00 +6°C° 0.1 mm 7 mps 739 mmHg 66%
    16:00 +6°C° 0.1 mm 7 mps 740 mmHg 66%
    17:00 +5°C° 0.1 mm 6 mps 740 mmHg 67%
    18:00 +5°C° 0 mm 6 mps 741 mmHg 67%
    19:00 +4°C° 0 mm 6 mps 741 mmHg 67%
    20:00 +3°C° 0 mm 5 mps 742 mmHg 67%
    21:00 +2°C° 0 mm 5 mps 742 mmHg 67%
    22:00 +2°C° 0 mm 5 mps 742 mmHg 66%
    23:00 +1°C° 0 mm 5 mps 742 mmHg 65%

    26 September, Wednesday

    Time Temperature Precipitation Wind Pressure Humidity
    00:00 +1°C° 0 mm 4 mps 742 mmHg 68%
    01:00 0°C° 0 mm 4 mps 742 mmHg 70%
    02:00 0°C° 0 mm 4 mps 742 mmHg 72%
    03:00 +1°C° 0.1 mm 3 mps 742 mmHg 76%
    04:00 +1°C° 0.1 mm 3 mps 742 mmHg 80%
    05:00 +1°C° 0.1 mm 3 mps 741 mmHg 84%
    06:00 +2°C° 0.5 mm 3 mps 741 mmHg 87%
    07:00 +3°C° 0.5 mm 3 mps 741 mmHg 89%
    08:00 +3°C° 0.5 mm 4 mps 740 mmHg 92%
    09:00 +4°C° 0.2 mm 4 mps 740 mmHg 88%
    10:00 +5°C° 0.2 mm 4 mps 740 mmHg 84%
    11:00 +6°C° 0.2 mm 5 mps 740 mmHg 81%
    12:00 +7°C° 0.2 mm 5 mps 740 mmHg 78%
    13:00 +7°C° 0.2 mm 5 mps 740 mmHg 75%
    14:00 +7°C° 0.2 mm 4 mps 740 mmHg 72%
    15:00 +7°C° 0.2 mm 4 mps 741 mmHg 75%
    16:00 +7°C° 0.2 mm 3 mps 741 mmHg 79%
    17:00 +7°C° 0.2 mm 2 mps 742 mmHg 82%
    18:00 +6°C° 0 mm 2 mps 742 mmHg 85%
    19:00 +5°C° 0 mm 2 mps 742 mmHg 88%
    20:00 +4°C° 0 mm 2 mps 743 mmHg 90%
    21:00 +3°C° 0 mm 2 mps 743 mmHg 91%
    22:00 +3°C° 0 mm 2 mps 744 mmHg 91%
    23:00 +3°C° 0 mm 2 mps 744 mmHg 92%
    Show more